Date String (YYYY-MM-DD hh:mm:ss) UTC,Instrument flags,Ambient pressure (hPa),Sample flow (lpm),Bypass flow (lpm),Sample temperature (°C),Ambient temperature (°C),ASC tube jacket temperature (°C),LED temperature (°C),Box temperature (°C),Sample RH (%),Span deviation,Mass concentration (μg/m³),Mass concentration (μg/m³),Mass concentration (μg/m³)
DateTimeUTC,F1_M11,P_M11,Q1_M11,Q2_M11,T1_M11,T2_M11,T3_M11,T4_M11,T5_M11,U1_M11,ZSPAN_M11,X0_M11,X2_M11,X1_M11
2023-01-09 01:00:00,,0824.3,5.01,0.00,23.5,21.9,00.0,32.6,25.1,08.0,0000.0,0003.90,0000.97,0000.66
2023-01-09 01:01:00,,0824.4,5.00,0.00,23.5,21.9,00.0,32.5,25.2,08.3,0000.0,0003.51,0000.93,0000.66
2023-01-09 01:02:00,,0824.4,4.98,0.00,23.5,21.9,00.0,32.5,25.2,08.1,0000.0,0003.54,0000.93,0000.65
2023-01-09 01:03:00,,0824.3,5.00,0.00,23.5,21.9,00.0,32.5,25.2,08.0,0000.0,0002.76,0000.92,0000.64
2023-01-09 01:04:00,,0824.3,5.00,0.00,23.5,22.0,00.0,32.5,25.1,08.0,0000.0,0002.83,0000.94,0000.64
2023-01-09 01:05:00,,0824.3,4.99,0.00,23.5,22.0,00.0,32.5,25.1,08.1,0000.0,0002.27,0000.87,0000.63
2023-01-09 01:06:00,,0824.2,5.01,0.00,23.5,22.0,00.0,32.5,25.2,08.2,0000.0,0001.43,0000.86,0000.63
2023-01-09 01:07:00,,0824.3,5.01,0.00,23.5,22.0,00.0,32.5,25.1,08.2,0000.0,0001.46,0000.86,0000.63
2023-01-09 01:08:00,,0824.3,4.99,0.00,23.5,21.9,00.0,32.4,25.1,08.4,0000.0,0001.71,0000.86,0000.63
2023-01-09 01:09:00,,0824.3,5.00,0.00,23.4,21.8,00.0,32.4,25.0,08.3,0000.0,0001.82,0000.87,0000.63
2023-01-09 01:10:00,,0824.3,5.00,0.00,23.4,21.8,00.0,32.4,25.0,08.3,0000.0,0001.84,0000.87,0000.63
2023-01-09 01:11:00,,0824.3,4.99,0.00,23.4,21.8,00.0,32.4,25.0,08.2,0000.0,0001.89,0000.88,0000.63
2023-01-09 01:12:00,,0824.3,4.99,0.00,23.3,21.7,00.0,32.3,24.9,08.5,0000.0,0001.91,0000.88,0000.62
2023-01-09 01:13:00,,0824.4,4.99,0.00,23.3,21.8,00.0,32.3,24.9,08.5,0000.0,0001.83,0000.85,0000.62
2023-01-09 01:14:00,,0824.2,4.99,0.00,23.3,21.9,00.0,32.3,25.0,08.4,0000.0,0001.77,0000.83,0000.62
2023-01-09 01:15:00,,0824.2,5.01,0.00,23.3,21.9,00.0,32.3,25.0,08.3,0000.0,0001.63,0000.81,0000.63
2023-01-09 01:16:00,,0824.2,5.01,0.00,23.3,21.9,00.0,32.3,25.0,08.2,0000.0,0001.59,0000.82,0000.63
2023-01-09 01:17:00,,0824.3,4.99,0.00,23.3,21.9,00.0,32.3,25.0,08.5,0000.0,0001.62,0000.83,0000.63
2023-01-09 01:18:00,,0824.4,4.99,0.00,23.3,21.9,00.0,32.3,25.0,08.8,0000.0,0003.45,0000.82,0000.63
2023-01-09 01:19:00,,0824.4,5.00,0.00,23.3,21.9,00.0,32.3,25.0,08.9,0000.0,0003.87,0000.84,0000.63
2023-01-09 01:20:00,,0824.3,5.02,0.00,23.3,22.0,00.0,32.3,25.0,08.9,0000.0,0003.59,0000.85,0000.63
2023-01-09 01:21:00,,0824.3,5.00,0.00,23.3,22.0,00.0,32.3,25.0,09.2,0000.0,0003.65,0000.86,0000.63
2023-01-09 01:22:00,,0824.4,5.01,0.00,23.3,22.0,00.0,32.3,25.0,08.7,0000.0,0003.76,0000.84,0000.63
2023-01-09 01:23:00,,0824.3,5.00,0.00,23.4,22.0,00.0,32.3,25.1,09.1,0000.0,0003.80,0000.84,0000.63
2023-01-09 01:24:00,,0824.3,4.99,0.00,23.4,22.0,00.0,32.2,25.1,09.3,0000.0,0003.92,0000.84,0000.63
2023-01-09 01:25:00,,0824.2,5.00,0.00,23.4,22.0,00.0,32.2,25.1,09.3,0000.0,0004.16,0000.85,0000.63
2023-01-09 01:26:00,,0824.2,5.00,0.00,23.4,22.0,00.0,32.2,25.0,09.0,0000.0,0004.28,0000.86,0000.63
2023-01-09 01:27:00,,0824.3,5.01,0.00,23.4,22.0,00.0,32.2,25.0,09.1,0000.0,0004.51,0000.84,0000.62
2023-01-09 01:28:00,,0824.4,5.00,0.00,23.4,21.9,00.0,32.2,25.0,09.2,0000.0,0005.53,0000.82,0000.62
2023-01-09 01:29:00,,0824.4,5.00,0.00,23.3,21.9,00.0,32.2,25.0,09.4,0000.0,0004.50,0000.88,0000.62
2023-01-09 01:30:00,,0824.3,5.00,0.00,23.3,21.9,00.0,32.2,25.0,09.0,0000.0,0003.49,0000.91,0000.62
2023-01-09 01:31:00,,0824.5,4.99,0.00,23.3,21.9,00.0,32.2,25.0,08.5,0000.0,0003.45,0000.88,0000.62
2023-01-09 01:32:00,,0824.7,5.00,0.00,23.3,21.9,00.0,32.2,25.1,09.0,0000.0,0003.49,0000.90,0000.61
2023-01-09 01:33:00,,0824.5,4.99,0.00,23.3,21.8,00.0,32.2,25.0,09.7,0000.0,0003.33,0000.91,0000.62
2023-01-09 01:34:00,,0824.6,5.01,0.00,23.3,21.8,00.0,32.2,25.0,09.1,0000.0,0003.30,0000.91,0000.62
2023-01-09 01:35:00,,0824.5,5.00,0.00,23.3,21.9,00.0,32.2,25.0,09.0,0000.0,0003.25,0000.94,0000.61
2023-01-09 01:36:00,,0824.7,4.99,0.00,23.3,21.9,00.0,32.2,25.0,09.0,0000.0,0003.05,0000.96,0000.61
2023-01-09 01:37:00,,0824.8,5.00,0.00,23.3,21.9,00.0,32.2,25.0,08.7,0000.0,0002.97,0000.96,0000.61
2023-01-09 01:38:00,,0824.5,5.00,0.00,23.3,22.0,00.0,32.2,25.0,08.5,0000.0,0003.05,0000.99,0000.62
2023-01-09 01:39:00,,0824.4,4.99,0.00,23.3,21.9,00.0,32.2,25.0,08.6,0000.0,0001.85,0001.00,0000.62
2023-01-09 01:40:00,,0824.4,5.01,0.00,23.3,21.8,00.0,32.2,25.0,08.6,0000.0,0001.67,0000.94,0000.62
2023-01-09 01:41:00,,0824.5,4.99,0.00,23.3,21.7,00.0,32.2,24.9,08.6,0000.0,0001.87,0000.91,0000.62
2023-01-09 01:42:00,,0824.4,5.00,0.00,23.2,21.6,00.0,32.2,24.9,08.7,0000.0,0002.53,0000.95,0000.64
2023-01-09 01:43:00,,0824.4,5.00,0.00,23.2,21.5,00.0,32.2,24.8,08.6,0000.0,0002.52,0000.96,0000.65
2023-01-09 01:44:00,,0824.6,4.99,0.00,23.2,21.4,00.0,32.2,24.8,08.7,0000.0,0002.44,0000.92,0000.64
2023-01-09 01:45:00,,0824.5,5.00,0.00,23.1,21.4,00.0,32.1,24.8,08.7,0000.0,0002.49,0000.95,0000.65
2023-01-09 01:46:00,,0824.4,5.01,0.00,23.1,21.5,00.0,32.1,24.7,08.6,0000.0,0002.47,0000.94,0000.66
2023-01-09 01:47:00,,0824.4,5.01,0.00,23.1,21.5,00.0,32.1,24.7,08.6,0000.0,0002.96,0000.93,0000.67
2023-01-09 01:48:00,,0824.4,5.01,0.00,23.0,21.4,00.0,32.1,24.6,08.8,0000.0,0003.61,0000.94,0000.67
2023-01-09 01:49:00,,0824.4,4.98,0.00,23.0,21.4,00.0,32.0,24.6,08.9,0000.0,0003.50,0000.93,0000.66
2023-01-09 01:50:00,,0824.3,5.00,0.00,23.0,21.4,00.0,32.0,24.6,08.7,0000.0,0003.65,0000.94,0000.67
2023-01-09 01:51:00,,0824.3,5.00,0.00,22.9,21.3,00.0,32.0,24.6,08.7,0000.0,0003.69,0000.97,0000.67
2023-01-09 01:52:00,,0824.4,4.99,0.00,22.9,21.4,00.0,32.0,24.6,09.1,0000.0,0003.51,0000.98,0000.67
2023-01-09 01:53:00,,0824.4,4.99,0.00,22.9,21.4,00.0,32.0,24.7,09.3,0000.0,0002.91,0000.97,0000.67
2023-01-09 01:54:00,,0824.3,4.99,0.00,23.0,21.5,00.0,32.0,24.7,09.6,0000.0,0002.88,0000.96,0000.67
2023-01-09 01:55:00,,0824.4,5.01,0.00,23.0,21.6,00.0,31.9,24.7,09.3,0000.0,0002.93,0000.98,0000.67
2023-01-09 01:56:00,,0824.3,5.03,0.00,23.0,21.6,00.0,31.9,24.7,09.0,0000.0,0002.95,0000.98,0000.66
2023-01-09 01:57:00,,0824.3,5.01,0.00,23.0,21.6,00.0,31.9,24.7,09.8,0000.0,0003.01,0000.98,0000.66
2023-01-09 01:58:00,,0824.4,5.00,0.00,23.0,21.6,00.0,31.9,24.7,09.1,0000.0,0002.61,0001.00,0000.66
2023-01-09 01:59:00,,0824.2,4.99,0.00,23.0,21.5,00.0,31.9,24.6,09.0,0000.0,0002.00,0001.00,0000.66
